[[{"header":{"parameterUnit":"m.s-1","parameterCategory":1,"la1":30.2991,"la2":30.254,"lo1":-89.0895,"lo2":-89.0444,"dy":0.0017,"dx":0.0017,"nx":28,"ny":28,"refTime":"2025-07-24T03:00:00:Z","depth":0,"parameterNumber":2,"parameterNumberName":"U-component_of_WINDS"},"data":[0,0,0,0,0,0,0,0,0,0,0,0,0,0,0,0,0,0,0,0,0,0,0,0,0,0,0,0,0,0,0,0,0,0,0,0,0,0,0,0,0,0,0,0,0,0,0,0,0,0,0,0,0,0,0,0,0,0,-1.7892,-1.7892,0,-1.7855,-1.7855,-1.7854,-1.7835,-1.7835,-1.7835,-1.7835,-1.78,-1.78,-1.7799,0,0,0,0,0,0,0,0,0,0,0,0,0,-1.7949,-1.7948,-1.7892,-1.7892,-1.7892,-1.7855,-1.7855,-1.7854,-1.7835,-1.7835,-1.7835,-1.7835,-1.7801,-1.78,-1.7799,0,0,0,0,0,0,0,0,0,0,0,0,0,-1.792,-1.7948,-1.7893,-1.7878,-1.7876,-1.7855,-1.7855,-1.7854,-1.7835,-1.7835,-1.7835,-1.7835,-1.7801,-1.78,-1.7799,-1.7791,0,0,-1.7794,-1.7794,0,0,0,0,0,0,0,0,-1.7921,-1.7918,-1.788,-1.7879,-1.7877,-1.785,-1.7862,-1.7833,-1.7835,-1.7851,-1.7835,-1.7835,-1.7817,-1.7814,-1.7808,-1.779,-1.7788,-1.7794,-1.7793,-1.7793,-1.7793,0,0,0,0,0,0,0,-1.7923,-1.7919,-1.7878,-1.788,-1.7877,-1.7873,-1.7869,-1.7857,-1.7835,-1.7849,-1.7848,-1.7844,-1.7816,-1.7809,-1.7807,-1.7788,-1.7794,-1.7793,-1.7792,-1.7792,-1.7761,-1.7761,0,0,0,0,0,0,-1.7928,-1.7921,-1.7879,-1.7877,-1.7899,-1.7872,-1.7868,-1.7858,-1.7835,-1.7831,-1.7844,-1.7843,-1.7811,-1.7808,-1.7806,-1.7795,-1.7793,-1.7792,-1.7791,-1.7761,-1.7761,-1.7761,0,0,0,0,0,0,-1.7929,-1.7924,-1.7881,-1.7898,-1.7892,-1.7871,-1.7861,-1.7858,-1.7851,-1.783,-1.7827,-1.784,-1.7811,-1.7807,-1.7794,-1.7793,-1.7791,-1.779,-1.7761,-1.7761,-1.7761,-1.7774,0,0,0,0,0,0,-1.7931,-1.7925,-1.7921,-1.7898,-1.7892,-1.7869,-1.7861,-1.7857,-1.7848,-1.7847,-1.7826,-1.7823,-1.7811,-1.7797,-1.7793,-1.7791,-1.7789,-1.7761,-1.7761,-1.7761,-1.7773,-1.7774,-1.7775,0,0,0,0,0,-1.7933,-1.7927,-1.7921,-1.7916,-1.7887,-1.7869,-1.7866,-1.7851,-1.7848,-1.7845,-1.7831,-1.7824,-1.7794,-1.7795,-1.7791,-1.7789,-1.7761,-1.7761,-1.7761,-1.7773,-1.7774,-1.7775,0,0,0,0,0,0,-1.7952,-1.7924,-1.7917,-1.7904,-1.7889,-1.7866,-1.7862,-1.7853,-1.7839,-1.7839,-1.7822,-1.7818,-1.7806,-1.7796,-1.7799,-1.7781,-1.7777,-1.7776,-1.7787,-1.7788,-1.7789,-1.7792,-1.7788,0,0,0,0,0,-1.7954,-1.7942,-1.7918,-1.7909,-1.7902,-1.7883,-1.7875,-1.7865,-1.7849,-1.7843,-1.7829,-1.7815,-1.7803,-1.7795,-1.7782,-1.7772,-1.7767,-1.7768,-1.7769,-1.777,-1.7769,-1.7763,-1.7763,-1.7761,-1.7761,-1.7761,0,0,-1.796,-1.7943,-1.7937,-1.7913,-1.79,-1.7888,-1.7878,-1.7866,-1.7857,-1.7842,-1.7828,-1.7817,-1.7801,-1.7789,-1.7783,-1.778,-1.7769,-1.777,-1.7771,-1.777,-1.7763,-1.7763,-1.7763,-1.7761,-1.7761,-1.7761,0,0,-1.7964,-1.795,-1.794,-1.7927,-1.7907,-1.7894,-1.7892,-1.787,-1.7862,-1.7848,-1.7836,-1.7825,-1.7804,-1.7792,-1.7784,-1.7782,-1.7774,-1.7778,-1.7782,-1.7776,-1.7776,-1.7776,-1.7775,-1.7775,-1.7778,-1.7778,-1.7778,0,-1.7974,-1.7954,-1.7937,-1.7925,-1.7914,-1.7898,-1.7888,-1.7877,-1.7855,-1.7849,-1.7846,-1.7818,-1.7806,-1.779,-1.779,-1.7783,-1.778,-1.778,-1.7777,-1.7777,-1.7777,-1.7776,-1.7775,-1.7778,-1.7778,-1.7778,-1.7778,0,-1.7967,-1.7953,-1.7948,-1.7925,-1.7914,-1.7903,-1.7885,-1.7876,-1.7866,-1.7854,-1.784,-1.7824,-1.7808,-1.7803,-1.7795,-1.7786,-1.7785,-1.778,-1.7776,-1.7778,-1.7776,-1.7776,-1.7779,-1.7779,-1.7779,-1.7779,0,0,-1.7983,-1.7949,-1.7948,-1.7936,-1.7913,-1.7902,-1.7891,-1.7873,-1.7866,-1.7851,-1.7841,-1.7822,-1.7817,-1.7807,-1.7797,-1.7791,-1.7789,-1.7786,-1.7785,-1.7787,-1.7779,-1.7784,-1.7783,-1.7784,-1.7784,-1.7784,-1.7781,0,-1.7984,-1.7961,-1.7944,-1.7928,-1.7915,-1.7899,-1.7889,-1.7873,-1.7861,-1.7849,-1.7836,-1.7823,-1.7817,-1.7811,-1.7804,-1.7791,-1.7788,-1.7791,-1.7775,-1.7775,-1.778,-1.7783,-1.7787,-1.7785,-1.778,-1.778,-1.778,0,-1.7982,-1.7965,-1.7947,-1.7923,-1.7917,-1.7908,-1.789,-1.7879,-1.7861,-1.7853,-1.7841,-1.7829,-1.7817,-1.7813,-1.7796,-1.7799,-1.7791,-1.7783,-1.7783,-1.7781,-1.7778,-1.7781,-1.7784,-1.7784,-1.7779,-1.7779,-1.7779,0,-1.7995,-1.7969,-1.7954,-1.7945,-1.7917,-1.7911,-1.7899,-1.7881,-1.7871,-1.7856,-1.7849,-1.7833,-1.7824,-1.7813,-1.7797,-1.7796,-1.7782,-1.7777,-1.7775,-1.7775,-1.7773,-1.7773,-1.7775,-1.7768,-1.7768,-1.7768,-1.7768,0,-1.7998,-1.7987,-1.7959,-1.7951,-1.7938,-1.7919,-1.7908,-1.7895,-1.7879,-1.7868,-1.7853,-1.7843,-1.7824,-1.7812,-1.78,-1.7787,-1.7784,-1.7777,-1.7774,-1.7778,-1.7779,-1.7773,-1.7773,-1.7768,-1.7768,-1.7768,-1.7768,0,-1.8011,-1.7992,-1.7975,-1.7949,-1.7942,-1.7934,-1.7912,-1.7904,-1.789,-1.7876,-1.7872,-1.7851,-1.7835,-1.7819,-1.7799,-1.7791,-1.7779,-1.7774,-1.7784,-1.7782,-1.7781,-1.7781,-1.778,-1.7778,-1.7772,-1.7772,-1.7772,0,-1.8014,-1.8005,-1.7978,-1.7968,-1.7956,-1.7942,-1.7931,-1.7912,-1.7901,-1.7879,-1.7873,-1.7856,-1.7842,-1.7818,-1.7802,-1.7786,-1.7782,-1.7782,-1.7779,-1.7784,-1.7782,-1.7782,-1.7781,-1.7783,-1.7783,-1.7783,-1.7783,0,-1.8021,-1.8012,-1.7996,-1.7976,-1.7963,-1.7947,-1.7931,-1.7925,-1.7902,-1.7891,-1.7874,-1.7863,-1.7841,-1.7825,-1.7807,-1.7796,-1.7786,-1.7784,-1.7783,-1.7787,-1.7793,-1.779,-1.7786,-1.7785,-1.7784,-1.7784,-1.7784,-1.7784,-1.803,-1.8021,-1.7999,-1.7982,-1.7967,-1.7952,-1.7941,-1.7926,-1.7911,-1.789,-1.788,-1.7863,-1.7845,-1.7819,-1.7809,-1.7796,-1.7793,-1.7791,-1.7791,-1.779,-1.7791,-1.7795,-1.7792,-1.7792,-1.7792,-1.7792,-1.7792,0,-1.8036,-1.8021,-1.8005,-1.7981,-1.7968,-1.7958,-1.7939,-1.7928,-1.7913,-1.7896,-1.7881,-1.7862,-1.7846,-1.7827,-1.781,-1.7803,-1.7798,-1.7799,-1.78,-1.7797,-1.7795,-1.7798,-1.7804,-1.7804,-1.7804,-1.7804,-1.7804,-1.7804,-1.8038,-1.8022,-1.801,-1.7986,-1.7971,-1.7953,-1.7943,-1.7929,-1.7915,-1.7893,-1.7879,-1.7866,-1.7849,-1.783,-1.7815,-1.781,-1.7804,-1.7806,-1.78,-1.7799,-1.7798,-1.7797,-1.7799,-1.7805,-1.7805,-1.7804,-1.7804,-1.7804]},{"header":{"parameterUnit":"m.s-1","parameterCategory":1,"la1":30.2991,"la2":30.254,"lo1":-89.0895,"lo2":-89.0444,"dy":0.0017,"dx":0.0017,"nx":28,"ny":28,"refTime":"2025-07-24T03:00:00:Z","depth":0,"parameterNumber":3,"parameterNumberName":"V-component_of_WINDS"},"data":[0,0,0,0,0,0,0,0,0,0,0,0,0,0,0,0,0,0,0,0,0,0,0,0,0,0,0,0,0,0,0,0,0,0,0,0,0,0,0,0,0,0,0,0,0,0,0,0,0,0,0,0,0,0,0,0,0,0,7.781,7.7811,0,7.7873,7.7873,7.7874,7.7797,7.7794,7.7791,7.7789,7.7845,7.7849,7.7853,0,0,0,0,0,0,0,0,0,0,0,0,0,7.7615,7.7619,7.781,7.7811,7.7812,7.7873,7.7873,7.7874,7.7797,7.7794,7.7791,7.7787,7.7844,7.7848,7.7853,0,0,0,0,0,0,0,0,0,0,0,0,0,7.7691,7.7621,7.781,7.7781,7.7779,7.7872,7.7873,7.7875,7.7798,7.7794,7.779,7.7786,7.7842,7.7848,7.7854,7.7977,0,0,7.7873,7.7876,0,0,0,0,0,0,0,0,7.7687,7.7698,7.7784,7.7783,7.7781,7.7823,7.7825,7.7909,7.7799,7.7791,7.7789,7.7784,7.784,7.7847,7.7867,7.798,7.7982,7.7874,7.7877,7.788,7.7882,0,0,0,0,0,0,0,7.7682,7.7695,7.7834,7.7786,7.7784,7.7762,7.7768,7.7841,7.7838,7.7791,7.7786,7.7794,7.7839,7.7862,7.7868,7.7983,7.7873,7.7879,7.7883,7.7885,7.8197,7.8202,0,0,0,0,0,0,7.7681,7.7691,7.7832,7.7836,7.7723,7.7769,7.7776,7.7813,7.7837,7.7837,7.7798,7.7791,7.7853,7.7861,7.787,7.8014,7.788,7.7886,7.7889,7.8193,7.8198,7.8203,0,0,0,0,0,0,7.7677,7.7694,7.783,7.7762,7.7778,7.7777,7.782,7.7817,7.784,7.7843,7.7841,7.7822,7.785,7.7861,7.7951,7.8015,7.7889,7.7894,7.8187,7.8194,7.8201,7.8305,0,0,0,0,0,0,7.7672,7.7693,7.7742,7.7764,7.7782,7.7913,7.7824,7.7821,7.7852,7.7843,7.7865,7.7865,7.7848,7.7942,7.7957,7.8021,7.7899,7.8182,7.8191,7.8199,7.8295,7.8314,7.833,0,0,0,0,0,7.7665,7.7767,7.7745,7.7762,7.7843,7.7917,7.7927,7.7907,7.7857,7.7904,7.7906,7.7864,7.8006,7.7952,7.7968,7.8035,7.8177,7.8188,7.8198,7.8287,7.831,7.833,0,0,0,0,0,0,7.7749,7.7769,7.7745,7.7858,7.7887,7.7904,7.7963,7.7932,7.7974,7.7963,7.7935,7.794,7.8036,7.8045,7.7984,7.8154,7.8083,7.8097,7.8146,7.8167,7.8184,7.8179,7.7904,0,0,0,0,0,7.7782,7.7843,7.7856,7.7954,7.797,7.7965,7.7996,7.7979,7.8006,7.8017,7.8025,7.8051,7.8101,7.8135,7.8181,7.8297,7.8299,7.835,7.8368,7.8382,7.8394,7.8454,7.8476,7.8237,7.8237,7.8237,0,0,7.7848,7.7866,7.7906,7.7971,7.7991,7.8052,7.7975,7.8043,7.8087,7.8026,7.8112,7.8119,7.8146,7.8249,7.8295,7.8259,7.8461,7.8395,7.8407,7.8411,7.8467,7.849,7.851,7.8244,7.8243,7.8242,0,0,7.7999,7.8021,7.8104,7.8127,7.8159,7.8155,7.8176,7.8198,7.8201,7.8288,7.8243,7.8294,7.8382,7.8403,7.8425,7.8585,7.8547,7.8601,7.8691,7.875,7.8769,7.8785,7.8841,7.8861,7.8613,7.8613,7.8613,0,7.8076,7.8169,7.815,7.8222,7.8251,7.8202,7.8285,7.8307,7.8352,7.8372,7.8332,7.8441,7.8456,7.8562,7.8602,7.8622,7.8642,7.8597,7.8768,7.8784,7.8799,7.8852,7.8873,7.8619,7.8619,7.8618,7.8617,0,7.8262,7.8327,7.839,7.8438,7.8474,7.8551,7.8541,7.858,7.856,7.8559,7.8646,7.8663,7.8712,7.8736,7.8716,7.884,7.8816,7.8773,7.87,7.8829,7.8878,7.8898,7.8628,7.8626,7.8624,7.8623,0,0,7.8467,7.8505,7.8528,7.8549,7.8582,7.863,7.8704,7.8754,7.8787,7.882,7.8879,7.8955,7.8915,7.894,7.8922,7.8974,7.9099,7.8924,7.8924,7.8955,7.9234,7.9266,7.929,7.9074,7.9078,7.9081,7.9231,0,7.8617,7.8749,7.8734,7.8857,7.8916,7.8871,7.8934,7.896,7.8962,7.9009,7.9009,7.9063,7.9007,7.9022,7.9072,7.9073,7.9154,7.9062,7.9127,7.9129,7.912,7.9316,7.9349,7.949,7.9251,7.9254,7.9256,0,7.8811,7.8854,7.8984,7.9008,7.9032,7.909,7.9135,7.9182,7.9209,7.9206,7.9236,7.9208,7.9279,7.9207,7.9304,7.9242,7.9267,7.9272,7.9277,7.9281,7.92,7.9323,7.9535,7.9556,7.9286,7.9284,7.9282,0,7.8946,7.9036,7.9125,7.9145,7.9175,7.9217,7.9231,7.9254,7.9285,7.9323,7.9343,7.9388,7.9412,7.9447,7.9431,7.938,7.953,7.9457,7.9528,7.9528,7.956,7.9558,7.9778,7.9579,7.9579,7.9579,7.9578,0,7.9115,7.9196,7.9186,7.9241,7.933,7.9311,7.9399,7.9407,7.9428,7.9482,7.9445,7.9495,7.9473,7.9521,7.9509,7.959,7.9602,7.9599,7.9595,7.9602,7.9602,7.9617,7.9607,7.9584,7.9583,7.9582,7.9581,0,7.928,7.9277,7.9371,7.9393,7.9401,7.9465,7.9482,7.9532,7.9531,7.96,7.9614,7.9612,7.9667,7.9656,7.9716,7.9707,7.9809,7.9793,7.9801,7.9796,7.9867,7.9861,8.0103,8.0133,7.9917,7.9919,7.9921,0,7.9387,7.9449,7.9479,7.9513,7.9531,7.9587,7.962,7.9603,7.9637,7.9674,7.9719,7.9771,7.9812,7.9902,7.9904,7.9949,7.9933,8.0015,7.9939,7.9944,7.9932,7.9929,7.9934,8.0029,8.0032,8.0034,8.0035,0,7.9578,7.9574,7.9624,7.9673,7.9713,7.9751,7.9784,7.9813,7.9799,7.9839,7.9897,7.9929,7.9991,8.0043,8.0085,8.0096,8.0063,8.006,8.0078,8.0085,8.0087,8.0086,7.984,8.0054,8.0052,8.005,8.0049,8.0049,7.9717,7.9769,7.9799,7.9855,7.9879,7.9911,7.9959,7.9965,8.0014,8.0065,8.0051,8.0116,8.014,8.0194,8.0211,8.0259,8.0228,8.0255,8.0262,8.0269,8.0277,8.0081,8.0267,8.0266,8.0266,8.0265,8.0265,0,7.9904,7.9921,7.9974,8.0023,8.0066,8.0035,8.007,8.0107,8.0166,8.0193,8.0235,8.03,8.035,8.0357,8.0403,8.0441,8.0427,8.0454,8.045,8.0453,8.0303,8.0281,8.0464,8.0464,8.0464,8.0464,8.0464,8.0464,8.0007,8.0095,8.0094,8.0192,8.0207,8.0273,8.0295,8.0324,8.0345,8.0421,8.0464,8.0469,8.0487,8.0535,8.0578,8.0579,8.0597,8.0629,8.0624,8.0483,8.0463,8.0444,8.0424,8.0634,8.0634,8.077,8.0771,8.0772]}]]